When you browse on this site, cookies collect data to enhance your experience and personalize the content and advertising you see.
Visit our Privacy Policy to learn more. By continuing to use the site, you agree to this use of cookies and data.
  • In Slovakia
  • List of Countries
  • For 7 days
  • Water Temperature
  • Weather Map
  • Weather Widgets
  • user-avatar
    Login

    Hourly Weather Sevan

    Today, 26 May, Tuesday

    Time Temperature Precipitation Wind Pressure Humidity
    00:00 +9°C° 0 mm 1 mps 642 mmHg 72%
    01:00 +9°C° 0 mm 1 mps 642 mmHg 73%
    02:00 +8°C° 0 mm 1 mps 642 mmHg 73%
    03:00 +8°C° 0 mm 1 mps 642 mmHg 74%
    04:00 +9°C° 0 mm 1 mps 642 mmHg 73%
    05:00 +10°C° 0 mm 1 mps 643 mmHg 72%
    06:00 +11°C° 0 mm 1 mps 643 mmHg 72%
    07:00 +12°C° 0 mm 1 mps 644 mmHg 67%
    08:00 +14°C° 0 mm 2 mps 644 mmHg 61%
    09:00 +15°C° 0 mm 2 mps 645 mmHg 57%
    10:00 +16°C° 0 mm 2 mps 645 mmHg 54%
    11:00 +17°C° 0 mm 2 mps 645 mmHg 51%
    12:00 +18°C° 0 mm 2 mps 645 mmHg 48%
    13:00 +19°C° 0 mm 2 mps 645 mmHg 47%
    14:00 +20°C° 0 mm 2 mps 645 mmHg 45%
    15:00 +21°C° 0 mm 2 mps 645 mmHg 43%
    16:00 +21°C° 0 mm 1 mps 645 mmHg 47%
    17:00 +21°C° 0 mm 1 mps 645 mmHg 50%
    18:00 +19°C° 0 mm 0 mps 645 mmHg 54%
    19:00 +19°C° 0 mm 1 mps 645 mmHg 56%
    20:00 +16°C° 0 mm 1 mps 644 mmHg 58%
    21:00 +14°C° 0 mm 2 mps 644 mmHg 60%
    22:00 +14°C° 0 mm 2 mps 644 mmHg 60%
    23:00 +14°C° 0 mm 2 mps 644 mmHg 60%

    Tomorrow, 27 May, Wednesday

    Time Temperature Precipitation Wind Pressure Humidity
    00:00 +14°C° 0 mm 2 mps 645 mmHg 60%
    01:00 +14°C° 0 mm 2 mps 644 mmHg 62%
    02:00 +13°C° 0 mm 2 mps 644 mmHg 64%
    03:00 +13°C° 0 mm 2 mps 644 mmHg 66%
    04:00 +14°C° 0 mm 2 mps 644 mmHg 67%
    05:00 +14°C° 0 mm 2 mps 645 mmHg 68%
    06:00 +15°C° 0 mm 2 mps 645 mmHg 69%
    07:00 +17°C° 0 mm 2 mps 646 mmHg 62%
    08:00 +20°C° 0 mm 1 mps 646 mmHg 56%
    09:00 +22°C° 0 mm 1 mps 647 mmHg 50%
    10:00 +23°C° 0 mm 2 mps 647 mmHg 47%
    11:00 +23°C° 0 mm 2 mps 647 mmHg 44%
    12:00 +24°C° 0 mm 2 mps 647 mmHg 42%
    13:00 +25°C° 0 mm 2 mps 647 mmHg 40%
    14:00 +25°C° 0 mm 2 mps 646 mmHg 39%
    15:00 +25°C° 0 mm 2 mps 646 mmHg 38%
    16:00 +25°C° 0 mm 1 mps 646 mmHg 43%
    17:00 +24°C° 0 mm 1 mps 646 mmHg 48%
    18:00 +22°C° 0 mm 0 mps 646 mmHg 53%
    19:00 +22°C° 0 mm 1 mps 645 mmHg 55%
    20:00 +19°C° 0 mm 2 mps 645 mmHg 57%
    21:00 +17°C° 0 mm 2 mps 645 mmHg 59%
    22:00 +17°C° 0 mm 2 mps 645 mmHg 57%
    23:00 +17°C° 0 mm 2 mps 644 mmHg 56%

    Day after tomorrow, 28 May, Thursday

    Time Temperature Precipitation Wind Pressure Humidity
    00:00 +16°C° 0 mm 2 mps 644 mmHg 54%
    01:00 +16°C° 0 mm 2 mps 644 mmHg 53%
    02:00 +16°C° 0 mm 1 mps 644 mmHg 53%
    03:00 +15°C° 0 mm 1 mps 644 mmHg 52%
    04:00 +16°C° 0 mm 1 mps 644 mmHg 54%
    05:00 +18°C° 0 mm 1 mps 644 mmHg 55%
    06:00 +19°C° 0 mm 1 mps 644 mmHg 57%
    07:00 +20°C° 0 mm 1 mps 644 mmHg 52%
    08:00 +22°C° 0 mm 1 mps 645 mmHg 47%
    09:00 +24°C° 0 mm 1 mps 645 mmHg 43%
    10:00 +25°C° 0 mm 2 mps 645 mmHg 40%
    11:00 +26°C° 0 mm 2 mps 645 mmHg 37%
    12:00 +27°C° 0 mm 2 mps 645 mmHg 35%
    13:00 +27°C° 0 mm 2 mps 645 mmHg 33%
    14:00 +28°C° 0 mm 2 mps 644 mmHg 31%
    15:00 +28°C° 0 mm 2 mps 644 mmHg 29%
    16:00 +27°C° 0 mm 2 mps 643 mmHg 35%
    17:00 +25°C° 0 mm 2 mps 643 mmHg 41%
    18:00 +24°C° 0 mm 2 mps 643 mmHg 47%
    19:00 +21°C° 0.2 mm 2 mps 642 mmHg 51%
    20:00 +19°C° 0.2 mm 2 mps 642 mmHg 56%
    21:00 +17°C° 0.2 mm 2 mps 642 mmHg 61%
    22:00 +17°C° 0.3 mm 2 mps 642 mmHg 60%
    23:00 +18°C° 0.3 mm 1 mps 642 mmHg 59%

    29 May, Friday

    Time Temperature Precipitation Wind Pressure Humidity
    00:00 +18°C° 0.3 mm 1 mps 642 mmHg 58%
    01:00 +16°C° 0.1 mm 1 mps 641 mmHg 59%
    02:00 +16°C° 0.1 mm 1 mps 640 mmHg 60%
    03:00 +15°C° 0.1 mm 1 mps 640 mmHg 61%
    04:00 +16°C° 0 mm 1 mps 640 mmHg 61%
    05:00 +18°C° 0 mm 1 mps 640 mmHg 61%
    06:00 +18°C° 0 mm 1 mps 640 mmHg 61%
    07:00 +20°C° 0 mm 1 mps 640 mmHg 56%
    08:00 +22°C° 0 mm 1 mps 640 mmHg 50%
    09:00 +24°C° 0 mm 1 mps 640 mmHg 44%
    10:00 +25°C° 0 mm 2 mps 640 mmHg 42%
    11:00 +26°C° 0 mm 3 mps 640 mmHg 39%
    12:00 +27°C° 0 mm 5 mps 640 mmHg 36%
    13:00 +28°C° 0 mm 4 mps 640 mmHg 36%
    14:00 +28°C° 0 mm 4 mps 640 mmHg 35%
    15:00 +29°C° 0 mm 4 mps 640 mmHg 34%
    16:00 +28°C° 0 mm 4 mps 640 mmHg 38%
    17:00 +26°C° 0 mm 4 mps 639 mmHg 42%
    18:00 +25°C° 0 mm 3 mps 639 mmHg 46%
    19:00 +22°C° 0 mm 3 mps 639 mmHg 43%
    20:00 +20°C° 0 mm 2 mps 639 mmHg 41%
    21:00 +18°C° 0 mm 2 mps 639 mmHg 39%
    22:00 +17°C° 0 mm 2 mps 639 mmHg 39%
    23:00 +17°C° 0 mm 2 mps 639 mmHg 39%

    30 May, Saturday

    Time Temperature Precipitation Wind Pressure Humidity
    00:00 +16°C° 0 mm 2 mps 639 mmHg 39%
    01:00 +15°C° 0 mm 2 mps 638 mmHg 40%
    02:00 +15°C° 0 mm 2 mps 638 mmHg 41%
    03:00 +14°C° 0 mm 2 mps 638 mmHg 42%
    04:00 +14°C° 0 mm 2 mps 639 mmHg 44%
    05:00 +15°C° 0 mm 2 mps 639 mmHg 46%
    06:00 +15°C° 0 mm 1 mps 640 mmHg 49%
    07:00 +16°C° 0 mm 2 mps 640 mmHg 42%
    08:00 +18°C° 0 mm 3 mps 641 mmHg 36%
    09:00 +19°C° 0 mm 4 mps 641 mmHg 30%
    10:00 +20°C° 0 mm 4 mps 641 mmHg 29%
    11:00 +20°C° 0 mm 4 mps 642 mmHg 28%
    12:00 +21°C° 0 mm 4 mps 642 mmHg 28%
    13:00 +21°C° 0 mm 3 mps 642 mmHg 28%
    14:00 +22°C° 0 mm 3 mps 642 mmHg 28%
    15:00 +23°C° 0 mm 2 mps 642 mmHg 27%
    16:00 +23°C° 0 mm 2 mps 642 mmHg 32%
    17:00 +22°C° 0 mm 1 mps 642 mmHg 36%
    18:00 +22°C° 0 mm 1 mps 642 mmHg 40%
    19:00 +20°C° 0 mm 1 mps 642 mmHg 39%
    20:00 +17°C° 0 mm 2 mps 642 mmHg 38%
    21:00 +15°C° 0 mm 2 mps 642 mmHg 37%
    22:00 +15°C° 0 mm 2 mps 642 mmHg 38%
    23:00 +14°C° 0 mm 2 mps 642 mmHg 40%

    31 May, Sunday

    Time Temperature Precipitation Wind Pressure Humidity
    00:00 +14°C° 0 mm 2 mps 642 mmHg 41%
    01:00 +14°C° 0 mm 2 mps 642 mmHg 43%
    02:00 +13°C° 0 mm 2 mps 642 mmHg 44%
    03:00 +13°C° 0 mm 2 mps 642 mmHg 46%
    04:00 +14°C° 0 mm 2 mps 642 mmHg 49%
    05:00 +14°C° 0 mm 1 mps 643 mmHg 51%
    06:00 +15°C° 0 mm 1 mps 643 mmHg 54%
    07:00 +18°C° 0 mm 1 mps 643 mmHg 50%
    08:00 +20°C° 0 mm 1 mps 644 mmHg 46%
    09:00 +21°C° 0 mm 1 mps 644 mmHg 41%
    10:00 +21°C° 0 mm 2 mps 644 mmHg 39%
    11:00 +23°C° 0 mm 2 mps 645 mmHg 36%
    12:00 +24°C° 0 mm 2 mps 645 mmHg 34%
    13:00 +25°C° 0 mm 2 mps 644 mmHg 32%
    14:00 +25°C° 0 mm 2 mps 644 mmHg 30%
    15:00 +26°C° 0 mm 2 mps 644 mmHg 29%
    16:00 +25°C° 0 mm 1 mps 644 mmHg 34%
    17:00 +24°C° 0 mm 1 mps 643 mmHg 40%
    18:00 +24°C° 0 mm 1 mps 643 mmHg 45%
    19:00 +21°C° 0 mm 2 mps 643 mmHg 50%
    20:00 +19°C° 0 mm 2 mps 643 mmHg 55%
    21:00 +16°C° 0 mm 3 mps 642 mmHg 60%
    22:00 +16°C° 0 mm 3 mps 642 mmHg 59%
    23:00 +16°C° 0 mm 3 mps 642 mmHg 58%
    Show more